Home > Weather > Konya > Past weeks

Flag for Turkey Past Weather in Konya, Turkey — Yesterday and Last 2 Weeks

Now
68 °F

Clear.


Feels Like: 68 °F
Forecast: 66 / 85 °F
Wind: 16 mph from North

Location: Konya Airport

Current Time: Aug 27, 2016 at 6:10:53 AM

Latest Report: Aug 27, 2016 at 4:50 AM


Visibility: 10 mi

Pressure: 30.04 "Hg (26.61 "Hg at 1041m altitude)

Humidity: 60%

Dew Point: 54 °F

Location of KonyaLocation

Past Weather in Konya — Graph

°F

Konya Temperature Yesterday

Maximum temperature yesterday: 88 °F (at 3:50 PM)
Minimum temperature yesterday: 68 °F (at 5:50 AM)
Average temperature yesterday: 78 °F

High & Low Weather Summary for the Past Weeks

 TemperatureHumidityPressure
High93 °F (Aug 12, 1:50 PM)72% (Aug 15, 5:50 AM)30.12 "Hg (Aug 15, 5:50 AM)
Low59 °F (Aug 15, 5:50 AM)13% (Aug 20, 4:50 PM)29.89 "Hg (Aug 17, 3:50 PM)
Average77 °F35%29.97 "Hg
* Reported Aug 12 4:50 AM — Aug 27 4:50 AM, Konya, Weather by CustomWeather, © 2016

Note: Actual official high and low records may vary slightly from our data, if they occured in-between our weather recording intervals... More about our weather records

Advertising

Konya Weather History for the Previous 24 Hours

Scroll right to see more
 ConditionsComfort  
Time TempWeatherWind HumidityBarometerVisibility
4:50 AM
Sat, Aug 27
68 °FClear.16 mph60%30.04 "Hg10 mi
3:50 AM70 °FClear.17 mph57%30.04 "Hg10 mi
2:50 AM70 °FClear.15 mph57%30.04 "Hg10 mi
1:50 AM70 °FClear.21 mph57%30.04 "Hg10 mi
12:50 AM72 °FClear.24 mph53%30.04 "Hg10 mi
11:50 PM
Fri, Aug 26
73 °FClear.24 mph50%30.04 "Hg10 mi
10:50 PM75 °FClear.22 mph44%30.04 "Hg10 mi
9:50 PM79 °FClear.18 mph42%30.01 "Hg10 mi
8:50 PM81 °FPassing clouds.18 mph32%29.98 "HgN/A
7:50 PM82 °FScattered clouds.7 mph26%29.95 "HgN/A
6:50 PM86 °FPassing clouds.6 mph25%29.95 "HgN/A
5:50 PM88 °FPassing clouds.5 mph22%29.95 "HgN/A
4:50 PM88 °FScattered clouds.3 mph24%29.95 "HgN/A
3:50 PM88 °FScattered clouds.3 mph24%29.98 "HgN/A
2:50 PM86 °FPassing clouds.5 mph31%29.98 "HgN/A
1:50 PM84 °FPassing clouds.6 mph35%30.01 "HgN/A
12:50 PM82 °FPassing clouds.6 mph37%30.01 "HgN/A
11:50 AM81 °FPassing clouds.9 mph39%30.01 "HgN/A
10:50 AM81 °FPassing clouds.13 mph39%30.04 "HgN/A
9:50 AM75 °FSunny.16 mph47%30.04 "Hg10 mi
8:50 AM73 °FSunny.15 mph50%30.04 "Hg10 mi
7:50 AM70 °FSunny.16 mph57%30.04 "Hg10 mi
6:50 AM68 °FClear.10 mph60%30.01 "Hg10 mi
Weather by CustomWeather, © 2016

See weather overviewHow to use our weather pages